DB0WT-13 Weather Reports


time (UTC)temp
C
wind
direction
speed
KPH
gust
KPH
rain 1hr
cm
rain 24hr
cm
rain mn
cm
humidity
%
barometer
mb
20260506174512 8 0.0 0.0 0.00 0.00 0.00 99 1015.2
20260506173012 8 0.0 0.0 0.00 0.00 0.00 99 1014.8
20260506171512 8 0.0 0.0 0.00 0.00 0.00 99 1013.8
20260506170012 8 0.0 0.0 0.00 0.00 0.00 99 1013.1
20260506164512 8 0.0 0.0 0.00 0.00 0.00 99 1012.3
20260506163012 8 0.0 0.0 0.00 0.00 0.00 99 1012.3
20260506161512 8 0.0 0.0 0.00 0.00 0.00 99 1012.2
20260506160012 8 0.0 0.0 0.00 0.00 0.00 99 1012.5
20260506154512 9 0.0 0.0 0.00 0.00 0.00 99 1012.5
20260506153012 9 0.0 0.0 0.00 0.00 0.00 99 1013.1
20260506151512 9 0.0 0.0 0.00 0.00 0.00 99 1015.0
20260506150012 9 0.0 0.0 0.00 0.00 0.00 99 1016.5
20260506144512 8 0.0 0.0 0.00 0.00 0.00 99 1015.1
20260506143012 9 0.0 0.0 0.00 0.00 0.00 99 1014.1
20260506141512 9 0.0 0.0 0.00 0.00 0.00 99 1013.7
20260506140011 8 0.0 0.0 0.00 0.00 0.00 99 1014.0
20260506134512 9 0.0 0.0 0.00 0.00 0.00 99 1013.8
20260506133012 10 0.0 0.0 0.00 0.00 0.00 99 1013.8
20260506131512 11 0.0 0.0 0.00 0.00 0.00 99 1011.7
20260506130012 12 0.0 0.0 0.00 0.00 0.00 99 1009.9
20260506124512 12 0.0 0.0 0.00 0.00 0.00 99 1009.6
20260506123012 12 0.0 0.0 0.00 0.00 0.00 99 1009.3
20260506121512 13 0.0 0.0 0.00 0.00 0.00 99 1008.0
20260506120013 14 0.0 0.0 0.00 0.00 0.00 99 1007.6
20260506114512 15 0.0 0.0 0.00 0.00 0.00 99 1008.1
20260506113012 13 0.0 0.0 0.00 0.00 0.00 99 1009.1
20260506111512 13 0.0 0.0 0.00 0.00 0.00 99 1009.1
20260506110012 13 0.0 0.0 0.00 0.00 0.00 99 1009.3
20260506104512 13 0.0 0.0 0.00 0.00 0.00 99 1009.5
20260506103012 12 0.0 0.0 0.00 0.00 0.00 99 1009.8
20260506101512 12 0.0 0.0 0.00 0.00 0.00 99 1009.7
20260506100013 12 0.0 0.0 0.00 0.00 0.00 99 1010.0
20260506094512 11 0.0 0.0 0.00 0.00 0.00 99 1010.2
20260506093012 12 0.0 0.0 0.00 0.00 0.00 99 1009.9
20260506091512 12 0.0 0.0 0.00 0.00 0.00 99 1010.3
20260506090012 11 0.0 0.0 0.00 0.00 0.00 99 1010.3
20260506084512 12 0.0 0.0 0.00 0.00 0.00 99 1009.7
20260506083012 12 0.0 0.0 0.00 0.00 0.00 99 1009.2
20260506081512 14 0.0 0.0 0.00 0.00 0.00 99 1007.8
20260506073012 18 0.0 0.0 0.00 0.00 0.00 99 1007.2
20260506071512 18 0.0 0.0 0.00 0.00 0.00 99 1007.3
20260506061511 8 0.0 0.0 0.00 0.00 0.00 99 1021.6
20260506044512 6 0.0 0.0 0.00 0.00 0.00 99 1023.0
20260506043012 6 0.0 0.0 0.00 0.00 0.00 99 1023.1
20260506041512 6 0.0 0.0 0.00 0.00 0.00 99 1023.5
20260506040011 6 0.0 0.0 0.00 0.00 0.00 99 1023.8
20260506034511 6 0.0 0.0 0.00 0.00 0.00 99 1024.0
20260506033012 6 0.0 0.0 0.00 0.00 0.00 99 1024.1
20260506031512 6 0.0 0.0 0.00 0.00 0.00 99 1024.1
20260506030012 7 0.0 0.0 0.00 0.00 0.00 99 1023.9
20260506024512 7 0.0 0.0 0.00 0.00 0.00 99 1024.0
20260506023012 7 0.0 0.0 0.00 0.00 0.00 99 1023.9
20260506021512 7 0.0 0.0 0.00 0.00 0.00 99 1023.4
20260506020012 7 0.0 0.0 0.00 0.00 0.00 99 1023.6
20260506014512 7 0.0 0.0 0.00 0.00 0.00 99 1023.3
20260506013012 6 0.0 0.0 0.00 0.00 0.00 99 1023.0
20260506011512 7 0.0 0.0 0.00 0.00 0.00 99 1023.4
20260506010012 6 0.0 0.0 0.00 0.00 0.00 99 1022.9
20260506004512 6 0.0 0.0 0.00 0.00 0.00 99 1022.9
20260506003012 6 0.0 0.0 0.00 0.00 0.00 99 1022.2
20260506001512 6 0.0 0.0 0.00 0.00 0.00 99 1021.4
20260506000012 6 0.0 0.0 0.00 0.00 0.00 99 1020.7
20260505234512 7 0.0 0.0 0.00 0.00 0.00 99 1020.6
20260505233012 7 0.0 0.0 0.00 0.00 0.00 99 1021.0
20260505231512 8 0.0 0.0 0.00 0.00 0.00 99 1021.2
20260505230012 8 0.0 0.0 0.00 0.00 0.00 99 1021.0
20260505224512 8 0.0 0.0 0.00 0.00 0.00 99 1020.9
20260505223012 7 0.0 0.0 0.00 0.00 0.00 99 1020.5
20260505221512 8 0.0 0.0 0.00 0.00 0.00 99 1020.7
20260505220012 7 0.0 0.0 0.00 0.00 0.00 99 1020.3
20260505214512 8 0.0 0.0 0.00 0.00 0.00 99 1020.1
20260505213012 8 0.0 0.0 0.00 0.00 0.00 99 1020.2
20260505211512 8 0.0 0.0 0.00 0.00 0.00 99 1020.0
20260505210012 8 0.0 0.0 0.00 0.00 0.00 99 1020.5
20260505204513 8 0.0 0.0 0.00 0.00 0.00 99 1020.1
20260505203012 8 0.0 0.0 0.00 0.00 0.00 99 1019.8
20260505201511 9 0.0 0.0 0.00 0.00 0.00 99 1019.7
20260505200011 9 0.0 0.0 0.00 0.00 0.00 99 1019.6
20260505194512 10 0.0 0.0 0.00 0.00 0.00 99 1019.5
20260505193012 10 0.0 0.0 0.00 0.00 0.00 99 1019.5
20260505191512 10 0.0 0.0 0.00 0.00 0.00 99 1019.6
20260505190012 10 0.0 0.0 0.00 0.00 0.00 99 1019.7
20260505184511 10 0.0 0.0 0.00 0.00 0.00 99 1020.3
20260505183011 10 0.0 0.0 0.00 0.00 0.00 99 1019.7
20260505181512 10 0.0 0.0 0.00 0.00 0.00 99 1018.6
20260505180012 11 0.0 0.0 0.00 0.00 0.00 99 1017.6